GFSMW_850_thetae_210.txt.gz
Theta_e
347 348 348 349 349 351 349 347 337 340 341 344 349 350 350 349 347 349 351 346 353 351 346 352 353 352 352 349 348 349 345 334 333 338 346 345 344 344 343 344 344 346 345
348 348 349 349 349 351 352 348 338 334 341 347 348 349 350 349 345 346 351 346 349 348 348 345 353 351 351 353 347 347 347 343 340 344 348 344 343 343 342 346 345 346 345
347 348 349 349 349 350 352 352 342 337 338 349 348 347 353 352 351 347 345 346 349 347 347 346 346 347 348 354 351 348 351 350 345 346 345 343 341 343 343 344 347 345 345
347 347 348 349 349 350 351 352 350 340 337 340 347 349 348 348 347 345 344 346 350 350 352 353 345 346 352 349 350 353 349 348 348 350 349 345 344 344 343 342 345 344 341
346 347 347 348 349 350 351 352 352 347 346 342 345 349 346 347 348 348 349 350 348 347 349 351 343 344 353 355 346 347 349 349 350 350 351 350 348 346 344 340 344 344 339
349 346 347 348 348 349 350 351 353 346 345 345 345 344 351 349 348 348 348 347 346 347 349 348 345 342 349 354 351 347 348 349 352 350 350 351 349 346 341 340 340 343 341
350 349 346 347 348 349 349 350 353 347 346 345 345 345 344 343 343 342 349 346 345 345 347 344 339 350 354 348 350 349 345 353 351 347 349 349 349 346 338 338 341 341 340
351 350 350 347 347 348 349 350 351 347 346 346 345 345 344 344 346 343 348 347 346 344 345 346 342 348 337 337 344 353 355 354 354 350 351 352 349 341 340 342 342 340 340
350 351 351 350 348 348 348 349 350 347 344 345 345 345 345 345 349 344 346 343 341 348 340 340 338 337 336 338 354 353 355 354 353 353 353 352 347 344 342 341 338 338 333
349 350 351 351 350 349 347 347 349 349 343 344 344 344 345 344 345 345 344 344 345 341 338 341 338 338 338 344 352 353 353 353 353 353 353 349 344 342 339 339 339 333 329
345 348 349 351 351 350 350 348 348 350 349 343 344 344 344 344 344 345 345 345 344 343 342 342 341 340 341 347 353 354 357 354 355 354 347 346 343 340 336 334 325 321 319
343 345 348 349 350 350 350 350 350 349 350 341 342 342 343 343 344 344 345 345 345 345 344 344 345 346 347 350 357 357 354 358 357 350 345 342 343 338 334 323 312 313 315
342 345 347 348 349 349 350 351 352 351 349 341 340 341 341 342 344 344 345 345 345 345 345 345 345 347 349 356 356 355 359 357 355 346 344 343 339 333 319 314 317 318 319
345 344 346 348 349 349 349 351 351 352 353 341 340 340 341 342 343 342 343 344 345 345 344 345 346 348 349 357 359 360 360 357 346 346 341 338 332 320 312 312 317 319 318
347 345 348 349 349 349 350 352 352 352 353 348 342 338 340 342 342 342 343 342 343 343 343 345 348 349 354 360 359 362 359 352 346 342 337 334 322 312 312 319 314 319 318
348 348 349 351 352 351 347 351 351 347 348 345 344 343 341 340 342 342 343 345 345 342 344 345 350 359 359 358 362 360 358 347 344 341 335 324 316 310 310 310 308 307 317
351 348 349 351 352 352 352 352 347 344 343 343 344 344 344 341 342 343 344 345 345 342 344 346 351 359 360 359 363 355 350 347 343 336 331 320 313 310 310 309 309 308 306
356 359 351 350 353 354 353 350 346 346 344 343 343 344 344 343 343 344 344 345 345 343 344 346 354 362 358 360 356 353 348 345 339 335 326 319 311 312 318 319 317 316 307
354 358 361 358 350 352 351 349 354 353 349 345 344 344 344 345 344 344 344 345 343 342 344 349 360 355 358 358 356 352 348 345 338 333 323 315 311 310 311 319 314 318 313
353 356 360 354 351 352 350 344 352 355 355 352 345 345 345 344 344 343 343 343 341 342 353 354 360 357 359 357 353 350 348 345 338 331 321 313 311 310 310 319 318 317 316
354 356 356 352 350 351 352 351 354 354 349 354 349 345 345 344 344 343 341 340 339 353 348 360 352 359 361 356 353 349 347 344 336 329 321 312 311 310 309 312 310 305 306
348 351 358 355 355 355 353 352 355 348 351 350 348 346 346 345 344 341 339 338 341 348 357 350 355 360 360 354 351 348 346 342 333 328 322 313 310 310 309 308 306 307 315
351 352 356 357 356 356 356 357 356 357 349 348 347 346 345 342 336 336 338 342 345 358 348 350 356 360 359 354 351 347 345 338 333 325 320 312 310 311 309 308 307 314 314
347 352 354 354 354 358 357 359 354 351 349 347 346 342 340 339 339 343 345 357 352 359 352 351 356 361 358 354 351 347 344 337 333 324 315 312 310 314 310 308 313 314 313
344 350 352 354 354 353 351 358 356 348 347 345 343 342 345 345 345 352 355 358 356 357 354 350 352 359 358 356 352 348 345 335 332 323 315 312 315 316 315 316 315 310 312
344 349 352 353 355 356 352 351 350 350 354 357 352 353 355 348 356 352 350 351 354 350 350 351 353 357 360 356 352 349 346 333 328 322 318 319 318 318 317 317 316 314 311

GFSMW_850_thetae_216.txt.gz
Theta_e
350 350 350 350 352 352 349 346 345 345 343 349 349 349 351 348 348 349 349 354 350 354 354 348 353 351 353 332 330 350 352 348 345 346 346 345 346 348 346 347 345 343 335
349 350 350 350 351 352 351 347 345 345 342 349 349 350 350 350 347 348 351 352 354 354 349 353 347 350 353 348 349 351 352 351 347 349 350 350 347 347 349 347 345 344 345
349 350 350 350 351 351 350 349 343 344 338 347 348 349 350 350 349 347 348 352 348 351 351 351 353 349 344 356 349 354 354 348 347 348 351 350 350 349 348 348 347 344 345
348 349 350 350 350 351 351 351 344 342 336 346 351 351 348 351 350 349 347 346 346 348 350 352 351 353 352 350 355 356 348 348 346 349 348 346 349 349 349 348 346 343 342
347 349 350 351 350 351 353 352 349 340 339 341 352 350 351 350 351 348 348 346 348 351 348 349 348 350 352 353 347 351 351 350 349 347 348 347 347 349 349 347 345 343 339
346 348 349 350 350 351 352 353 352 342 336 336 346 353 352 349 351 348 348 349 349 348 348 349 348 347 352 350 355 355 351 351 353 351 349 349 351 349 348 345 343 340 340
346 347 349 351 351 351 351 353 353 350 333 335 334 349 351 356 348 352 350 349 350 348 348 349 350 352 353 355 352 350 350 354 354 351 349 351 350 349 344 343 335 337 338
348 346 348 350 351 351 350 352 353 352 344 336 337 337 339 346 348 349 350 351 351 350 352 349 349 349 348 347 352 353 355 353 353 349 351 349 347 343 340 337 338 335 333
350 347 346 348 351 350 350 350 352 352 348 342 341 340 343 342 345 353 354 351 350 350 348 349 352 349 353 354 354 355 356 355 352 352 351 345 343 341 341 335 330 326 323
349 350 348 348 349 349 350 350 352 352 351 346 344 344 344 345 345 355 355 356 356 356 353 349 347 342 349 355 356 356 356 353 355 354 345 343 341 340 338 335 325 321 321
350 351 350 348 348 349 349 350 350 355 353 351 348 347 345 344 345 345 349 353 352 349 346 344 344 344 352 357 355 357 355 357 356 348 340 336 336 334 324 317 315 315 322
346 350 352 351 349 348 348 349 350 351 354 352 351 350 348 345 344 344 345 346 350 352 345 347 349 347 352 356 359 356 356 359 351 349 339 335 329 325 323 322 323 321 319
347 348 350 352 352 350 348 348 348 349 352 353 351 352 354 349 344 343 344 348 352 352 347 354 358 353 355 356 359 355 360 355 350 348 334 329 320 314 311 314 320 323 323
352 351 350 352 353 352 350 348 348 348 350 353 352 350 354 352 345 343 344 346 349 348 345 349 353 353 355 359 359 357 360 351 348 342 332 322 314 315 320 317 316 319 318
353 350 350 350 352 353 352 350 349 349 349 351 351 350 351 350 345 343 343 346 347 345 346 350 357 357 356 361 360 358 358 350 346 337 324 317 311 311 309 306 305 305 304
362 357 354 352 353 353 353 353 353 351 350 349 349 351 352 352 347 344 343 349 347 344 340 343 354 361 361 361 360 358 354 349 343 333 322 314 309 308 307 306 304 303 304
359 362 360 356 355 355 354 354 355 354 352 351 349 350 349 349 344 344 347 356 348 343 344 349 356 361 362 360 359 359 351 347 337 328 320 314 309 311 312 312 304 306 307
358 360 362 362 357 356 357 357 356 356 356 356 353 353 352 347 344 342 348 359 350 349 346 350 355 360 361 361 358 354 352 345 333 324 321 314 310 315 316 318 312 315 313
358 360 361 362 363 357 356 356 358 357 359 359 360 357 356 353 347 342 345 349 349 350 350 353 356 358 361 359 358 353 350 344 332 325 320 313 309 309 313 314 319 315 315
352 350 357 364 363 361 356 357 357 359 359 358 362 360 358 357 353 346 349 344 348 348 353 354 360 359 359 358 357 352 350 342 333 325 318 312 308 308 310 314 314 312 313
347 348 360 364 360 361 359 357 357 360 360 359 361 361 360 359 357 358 356 349 349 347 354 360 360 359 358 359 355 347 348 343 334 325 318 312 308 308 308 307 309 314 315
344 347 357 363 362 358 359 363 359 360 361 360 361 361 361 360 361 359 357 353 350 360 355 363 359 361 358 360 353 349 347 343 333 324 320 312 308 307 306 308 312 314 314
351 349 354 359 361 358 359 361 361 361 361 360 361 361 361 358 363 364 360 353 350 364 358 363 359 357 357 361 353 348 345 342 334 327 320 313 308 307 307 311 315 315 314
345 348 352 350 359 361 360 362 362 362 361 360 362 363 362 359 365 363 360 352 349 366 362 362 367 359 357 360 355 350 345 342 334 330 325 314 309 307 308 313 315 316 314
339 342 343 341 356 359 360 360 362 363 363 362 363 363 363 361 369 364 363 358 357 352 364 360 353 354 353 357 358 354 349 345 338 332 323 315 309 309 309 319 315 311 314
334 335 337 339 346 355 360 360 361 362 364 363 363 364 365 362 367 364 364 353 357 354 360 361 360 358 352 355 358 353 348 345 343 333 325 316 311 311 312 320 314 316 314

GFSMW_850_thetae_219.txt.gz
Theta_e
349 347 347 348 350 350 347 344 344 344 342 336 341 347 342 346 347 346 349 354 351 352 354 348 349 350 349 350 353 347 350 345 346 349 344 347 348 347 347 345 345 344 338
350 348 348 349 350 350 350 348 344 344 343 335 337 344 350 350 348 348 350 350 349 349 350 352 347 343 342 344 350 352 351 347 349 348 347 348 347 345 348 346 345 343 343
350 349 349 350 351 351 351 351 343 343 341 336 341 349 351 351 350 347 348 347 344 345 343 344 344 341 346 342 349 352 348 349 348 346 348 348 347 347 348 345 343 342 341
350 350 349 349 351 351 351 351 345 342 340 338 343 349 350 349 351 349 345 346 346 346 343 340 345 343 335 340 350 353 352 350 349 351 347 346 348 350 348 345 342 339 339
349 350 350 350 350 351 351 351 348 339 336 337 342 349 349 349 349 349 348 350 346 345 345 347 348 348 347 344 349 352 354 348 352 353 347 348 350 349 348 345 338 338 338
349 350 350 349 350 351 351 350 351 345 333 334 343 347 349 347 350 350 351 349 348 348 350 350 349 349 350 349 349 352 349 353 353 352 348 352 349 347 342 336 336 337 336
348 350 350 349 350 351 351 350 351 348 341 332 338 349 350 345 350 350 348 348 350 349 349 348 349 349 350 349 347 351 353 356 354 351 350 347 343 339 338 336 333 337 336
347 349 350 350 350 350 351 351 351 351 346 331 332 342 350 349 346 349 351 350 347 350 352 350 351 350 349 344 351 354 355 355 352 353 347 341 338 341 337 329 327 332 333
347 349 349 350 350 349 351 351 350 350 350 338 329 332 335 344 345 342 345 346 346 349 352 350 348 348 345 347 353 357 355 354 355 348 344 340 340 338 336 333 328 322 325
342 347 349 349 349 349 350 351 351 350 350 349 335 332 334 335 336 338 341 348 354 356 352 346 345 343 344 347 356 357 354 355 352 347 338 339 338 338 332 317 312 319 321
347 347 350 348 348 349 349 350 350 350 349 350 348 339 338 339 340 342 344 352 351 350 353 349 344 344 346 349 358 358 353 357 348 346 333 328 325 319 315 312 313 317 320
348 347 348 349 349 349 349 349 350 350 350 350 350 349 341 340 342 343 344 345 347 344 344 345 345 349 352 355 357 358 355 353 349 344 331 325 323 316 316 314 317 319 319
344 346 348 348 348 348 348 348 349 350 350 351 350 351 350 345 343 343 344 345 345 343 344 346 347 352 355 357 360 359 358 351 349 340 328 319 313 310 311 314 320 323 320
359 351 348 348 348 348 348 348 349 350 349 351 352 351 350 349 343 343 345 347 347 344 345 348 351 354 353 358 361 359 358 351 347 335 322 314 309 308 307 307 311 312 316
359 358 359 349 348 348 348 348 349 349 349 349 350 351 350 350 347 347 347 349 346 345 345 349 352 352 358 359 360 361 354 351 343 329 320 312 308 307 306 304 304 303 304
360 359 364 352 350 349 348 348 348 347 348 348 348 348 350 350 350 348 347 349 345 345 344 348 349 355 360 360 362 360 355 349 340 326 318 310 308 307 306 304 305 306 309
359 357 361 363 357 351 351 349 348 347 347 348 348 348 348 349 350 350 349 348 344 344 340 345 350 359 361 362 360 357 354 348 336 323 316 309 309 309 308 307 308 310 311
360 359 357 358 362 362 354 351 349 349 349 349 349 349 349 348 349 351 354 348 344 344 343 346 355 359 360 362 360 356 353 346 332 321 316 311 311 309 309 309 310 312 312
354 351 356 358 358 361 361 358 355 353 352 351 351 350 350 350 350 346 352 350 343 344 345 350 352 356 360 361 359 355 351 346 332 321 318 311 309 310 309 307 310 312 313
344 352 361 362 360 360 362 357 358 357 358 356 355 354 353 353 353 350 345 343 343 344 347 351 354 355 360 361 357 355 351 347 333 323 317 310 308 309 310 309 312 313 315
347 355 361 361 360 359 361 361 356 356 358 360 359 360 359 357 356 355 350 343 343 346 350 355 355 358 361 361 357 356 350 346 336 325 317 310 308 308 307 309 313 313 314
348 349 354 358 359 357 361 365 359 357 358 359 358 359 362 361 360 358 356 353 349 347 352 354 357 360 363 361 359 355 350 346 339 327 318 311 308 307 306 312 314 314 313
345 347 349 353 355 356 359 367 362 360 360 361 360 359 361 361 361 361 359 357 354 351 353 354 361 359 364 362 359 354 349 345 337 327 318 311 308 307 309 313 314 314 314
347 348 345 348 345 352 358 361 363 363 363 362 360 360 361 361 362 362 362 361 356 353 353 357 361 362 360 360 358 348 345 344 341 331 321 312 308 307 311 314 315 314 314
343 345 346 348 347 348 355 359 361 362 362 361 361 361 362 362 361 362 363 362 355 352 348 352 354 352 347 357 358 354 349 346 343 336 328 321 309 307 311 313 312 313 313
336 340 342 346 348 345 350 354 360 362 362 362 362 361 362 362 361 363 364 362 357 353 353 352 352 359 355 352 357 357 352 348 344 340 333 324 313 309 311 315 311 313 313

GFSMW_850_thetae_222.txt.gz
Theta_e
348 347 346 346 348 347 347 346 342 341 342 334 343 344 342 346 347 348 346 349 352 350 353 347 352 347 345 343 349 352 348 350 350 347 345 345 346 346 347 344 343 342 342
348 347 346 347 347 348 349 348 344 341 342 335 338 342 343 345 345 346 348 350 350 344 346 341 339 345 345 348 350 354 353 352 348 351 347 347 346 348 346 343 341 341 341
348 347 347 347 347 348 349 349 348 341 340 336 335 344 349 351 350 347 348 350 345 345 341 341 344 347 347 347 350 352 353 348 350 352 349 349 348 349 347 343 340 340 338
348 347 347 347 348 349 349 350 350 345 337 338 336 348 349 351 351 347 347 345 346 345 343 345 346 348 349 349 350 352 350 351 352 351 348 350 349 346 345 340 339 338 336
349 348 347 348 348 349 350 350 350 349 334 337 334 348 349 349 350 349 349 348 348 346 349 349 349 348 350 350 350 348 352 351 353 353 348 349 346 342 336 338 339 337 337
348 350 349 349 349 349 349 350 350 349 341 333 335 342 346 348 349 348 348 349 347 349 350 348 347 349 349 350 349 349 351 352 354 350 349 343 338 335 335 335 337 335 332
347 349 349 349 349 349 350 350 350 349 348 333 333 337 341 344 348 349 350 351 349 349 348 348 348 349 350 352 349 351 353 353 351 348 344 338 337 337 334 331 334 334 326
347 348 349 349 349 349 349 350 350 349 349 340 329 334 340 337 346 348 347 348 347 345 348 352 350 350 353 352 348 353 354 352 352 346 343 336 333 334 333 333 330 336 334
347 347 348 350 349 349 349 349 349 349 350 347 332 331 337 341 339 345 348 349 349 345 346 350 352 350 347 346 352 355 353 354 348 346 338 334 334 336 332 323 317 319 325
346 346 347 349 349 349 349 349 349 347 349 349 342 329 332 336 338 342 343 342 340 345 346 349 350 349 346 349 354 356 352 354 347 343 333 330 329 325 311 311 318 319 320
346 346 347 348 349 349 349 349 349 348 349 349 348 340 329 332 332 334 337 338 339 343 342 347 347 347 349 352 355 357 353 354 347 341 328 323 321 315 310 313 314 315 317
346 346 348 349 350 349 349 349 349 349 348 349 348 348 339 333 334 336 337 340 341 342 343 344 346 349 354 353 356 359 356 351 348 338 326 318 313 310 309 311 313 314 318
343 343 342 347 349 349 349 349 349 349 348 349 349 348 349 344 338 337 340 343 343 343 342 344 346 350 358 356 357 358 357 351 347 336 321 313 311 309 309 311 312 319 315
358 352 345 346 347 349 349 349 347 348 347 348 349 348 349 349 348 342 341 343 343 343 343 345 346 350 357 357 357 361 358 350 346 333 318 310 308 306 305 304 304 306 309
345 355 358 347 349 350 348 348 347 347 347 348 348 349 349 349 350 349 345 344 342 342 343 346 347 352 356 359 356 359 356 348 344 328 316 308 307 305 304 304 305 312 318
338 340 358 350 348 347 346 347 348 347 347 348 348 348 349 350 350 350 349 347 342 342 344 346 347 350 356 360 358 358 355 350 342 325 315 308 307 305 306 307 312 317 319
354 342 355 359 347 348 348 348 347 347 348 348 348 348 348 349 351 350 351 348 342 342 343 347 346 344 352 359 360 359 354 349 341 323 314 309 309 307 308 309 312 313 316
348 355 356 363 359 349 348 348 348 348 348 348 348 348 347 348 349 350 350 347 343 341 342 348 347 349 354 359 361 360 353 349 336 320 314 310 310 308 307 310 312 312 313
345 355 359 361 360 361 351 348 348 348 348 348 347 347 348 349 348 349 346 341 342 341 343 347 348 351 355 358 361 360 353 347 333 320 317 311 310 308 308 310 313 312 312
348 357 360 359 358 361 362 353 350 349 348 347 348 348 349 349 349 349 348 335 338 339 345 350 351 353 355 356 361 357 354 347 337 323 318 312 310 309 309 311 311 313 312
346 352 358 358 358 358 360 360 357 352 350 350 351 350 350 350 350 351 351 343 336 340 349 353 354 356 357 357 361 357 354 348 341 326 317 310 310 311 310 313 313 312 312
345 346 350 356 357 358 362 360 359 360 359 359 357 357 355 354 353 354 354 352 343 342 350 354 356 358 360 362 362 357 353 347 342 330 318 310 308 309 310 313 313 313 312
340 344 344 349 356 357 361 363 360 358 358 361 360 359 358 359 359 358 358 356 353 349 351 353 356 358 360 359 359 356 351 346 340 328 319 310 308 307 311 313 314 313 313
338 340 343 344 346 355 357 361 362 361 359 361 361 360 359 360 362 361 360 358 357 356 354 354 357 358 359 358 356 354 352 346 338 324 317 311 308 307 311 314 314 313 313
334 336 339 340 343 347 350 356 360 362 361 363 363 362 360 360 362 362 362 362 360 358 354 354 355 352 360 360 360 356 353 350 344 335 323 315 309 307 311 314 314 313 313
331 336 337 339 340 344 346 349 353 357 353 360 362 362 361 360 361 362 362 363 362 363 361 358 353 351 355 354 357 356 354 348 345 341 337 327 315 308 309 314 311 312 312